[TLELIST] Archives

 

[TLELIST] Current TLEs

March 30th 2024 PST

HST 1 20580U 90037B 24089.85318736 .00006898 00000-0 33460-3 0 9998 2 20580 28.4674 156.1802 0002261 240.2934 119.7433 15.16538034664972 ISS (ZARYA) 1 25544U 98067A 24090.26939992 .00025183 00000-0 45175-3 0 9998 2 25544 51.6413 346.6442 0004779 23.0617 74.4394 15.49744166446302 CXO 1 25867U 99040B 24091.17811311 .00001177 00000-0 00000-0 0 9995 2 25867 39.4890 161.6714 8952964 290.6875 0.1452 0.37811075 14277 ...Continue Reading

[TLELIST] Current TLEs

March 29th 2024 PST

HST 1 20580U 90037B 24088.86605780 .00006750 00000-0 32734-3 0 9996 2 20580 28.4676 162.7818 0002301 228.4694 131.5700 15.16523942664825 ISS (ZARYA) 1 25544U 98067A 24089.24577390 .00025666 00000-0 46105-3 0 9994 2 25544 51.6418 351.7145 0004831 19.3054 123.6312 15.49693168446140 CXO 1 25867U 99040B 24088.53609835 .00001135 00000-0 00000+0 0 9990 2 25867 39.4629 161.8807 8955396 290.5377 0.3961 0.37815734 25411 ...Continue Reading

[TLELIST] Current TLEs

March 28th 2024 PST

HST 1 20580U 90037B 24087.54987135 .00007109 00000-0 34541-3 0 9994 2 20580 28.4679 171.5837 0002376 212.0932 147.9516 15.16505113664627 ISS (ZARYA) 1 25544U 98067A 24088.27898818 .00028384 00000-0 50977-3 0 9999 2 25544 51.6421 356.5011 0004656 14.4498 131.4135 15.49641988445997 CXO 1 25867U 99040B 24088.53609835 .00001135 00000-0 00000+0 0 9990 2 25867 39.4629 161.8807 8955396 290.5377 0.3961 0.37815734 25411 ...Continue Reading

[TLELIST] Current TLEs

March 27th 2024 PST

HST 1 20580U 90037B 24086.89177190 .00008245 00000-0 40224-3 0 9990 2 20580 28.4680 175.9841 0002402 205.0006 155.0470 15.16496108664527 ISS (ZARYA) 1 25544U 98067A 24087.24517777 .00033256 00000-0 59668-3 0 9997 2 25544 51.6416 1.6180 0004719 9.6414 125.2000 15.49587019445839 CXO 1 25867U 99040B 24088.53609835 .00001135 00000-0 00000+0 0 9990 2 25867 39.4629 161.8807 8955396 290.5377 0.3961 0.37815734 25411 ...Continue Reading

[TLELIST] Current TLEs

March 27th 2024 PST

HST 1 20580U 90037B 24086.89177190 .00008245 00000-0 40224-3 0 9990 2 20580 28.4680 175.9841 0002402 205.0006 155.0470 15.16496108664527 ISS (ZARYA) 1 25544U 98067A 24087.24517777 .00033256 00000-0 59668-3 0 9997 2 25544 51.6416 1.6180 0004719 9.6414 125.2000 15.49587019445839 CXO 1 25867U 99040B 24088.53609835 .00001135 00000-0 00000+0 0 9990 2 25867 39.4629 161.8807 8955396 290.5377 0.3961 0.37815734 25411 ...Continue Reading

[TLELIST] Current TLEs

March 26th 2024 PST

HST 1 20580U 90037B 24085.57555983 .00014239 00000-0 70153-3 0 9998 2 20580 28.4682 184.7851 0002505 190.1380 169.9162 15.16476745664326 ISS (ZARYA) 1 25544U 98067A 24086.27969060 .00036352 00000-0 65257-3 0 9996 2 25544 51.6411 6.3999 0004735 6.6358 138.7838 15.49527695445681 CXO 1 25867U 99040B 24088.53609835 .00001135 00000-0 00000+0 0 9990 2 25867 39.4629 161.8807 8955396 290.5377 0.3961 0.37815734 25411 ...Continue Reading

[TLELIST] Current TLEs

March 26th 2024 PST

HST 1 20580U 90037B 24085.57555983 .00014239 00000-0 70153-3 0 9998 2 20580 28.4682 184.7851 0002505 190.1380 169.9162 15.16476745664326 ISS (ZARYA) 1 25544U 98067A 24086.27969060 .00036352 00000-0 65257-3 0 9996 2 25544 51.6411 6.3999 0004735 6.6358 138.7838 15.49527695445681 CXO 1 25867U 99040B 24088.53609835 .00001135 00000-0 00000+0 0 9990 2 25867 39.4629 161.8807 8955396 290.5377 0.3961 0.37815734 25411 ...Continue Reading

[TLELIST] Current TLEs

March 26th 2024 PST

HST 1 20580U 90037B 24085.57555983 .00014239 00000-0 70153-3 0 9998 2 20580 28.4682 184.7851 0002505 190.1380 169.9162 15.16476745664326 ISS (ZARYA) 1 25544U 98067A 24086.27969060 .00036352 00000-0 65257-3 0 9996 2 25544 51.6411 6.3999 0004735 6.6358 138.7838 15.49527695445681 CXO 1 25867U 99040B 24088.53609835 .00001135 00000-0 00000+0 0 9990 2 25867 39.4629 161.8807 8955396 290.5377 0.3961 0.37815734 25411 ...Continue Reading

[TLELIST] Current TLEs

March 25th 2024 PST

HST 1 20580U 90037B 24084.72001000 .00014303 00000-0 70514-3 0 9993 2 20580 28.4682 190.5053 0002582 181.7702 178.2881 15.16455504664190 ISS (ZARYA) 1 25544U 98067A 24085.31186315 .00092744 00000-0 16427-2 0 9995 2 25544 51.6423 11.1916 0004753 2.5905 140.5675 15.49490802445533 CXO 1 25867U 99040B 24085.89196829 .00001102 00000-0 00000-0 0 9995 2 25867 39.4333 162.0906 8959336 290.3893 0.3900 0.37814546 14258 ...Continue Reading

[TLELIST] Current TLEs

March 25th 2024 PST

HST 1 20580U 90037B 24084.72001000 .00014303 00000-0 70514-3 0 9993 2 20580 28.4682 190.5053 0002582 181.7702 178.2881 15.16455504664190 ISS (ZARYA) 1 25544U 98067A 24085.31186315 .00092744 00000-0 16427-2 0 9995 2 25544 51.6423 11.1916 0004753 2.5905 140.5675 15.49490802445533 CXO 1 25867U 99040B 24085.89196829 .00001102 00000-0 00000-0 0 9995 2 25867 39.4333 162.0906 8959336 290.3893 0.3900 0.37814546 14258 ...Continue Reading
  • This mailing list is a public mailing list - anyone may join or leave, at any time.
  • This mailing list is announce-only.

International Space Station (ISS) / Hubble Space Telescope (HST) / Chandra X-Ray Observatory Orbital Data via EMAIL

Privacy Policy:

Private list